Location: Blangy-Tronville
(49.8790°N, 2.4226°E)
Time: 21:20:22
(UTC+00:00)

Sich 1 Rocket - Pass Details

Date: 18 November 2025
Orbit: 611 x 646 km, 82.5° (Epoch: 05 December)

Event Time Altitude Azimuth Distance (km) Brightness Sun altitude
Rises 18:06:20 0° 180° (S) 2,939 7.1 -19.6°
Reaches altitude 10° 18:08:34 10° 177° (S) 2,038 6.2 -20.0°
Maximum altitude 18:13:03 65° 96° (E) 715 3.5 -20.7°
Enters shadow 18:14:55 34° 26° (NNE) 1,073 4.5 -21.0°
